Temp
10 9 9 9 9 8 9 8 8 8 8 7 7 7 7 7 7 7 7 7 7 6 6 6 5 5 6 6 6 6 7 7 8 8 9 10 10 10 10 10 10 11 11 12 12 12 12 13 13 13 14 14 14 14 14 14 14 14 14 14 14 14 14 13 13 14 15 15 15 16 16 16 15 15 15 15 15 16 16 15 16 16 16 16 16
9 9 9 9 8 8 8 8 8 8 8 7 7 7 7 7 7 7 7 7 7 6 5 5 5 4 4 4 5 5 5 5 5 6 6 7 8 8 7 7 7 8 9 10 11 11 11 11 12 13 13 14 14 14 14 14 14 14 14 14 14 14 14 14 13 13 14 15 15 15 15 15 15 15 15 15 15 15 15 15 15 15 15 16 16
9 9 9 9 8 8 8 8 8 8 8 7 7 7 7 7 7 7 7 7 6 6 5 4 4 4 4 5 5 5 5 4 4 4 3 4 4 5 5 6 6 7 8 8 9 9 10 10 12 13 13 13 13 14 14 14 14 14 14 14 14 14 14 14 13 13 14 14 15 15 15 14 14 15 15 15 15 15 15 15 15 15 15 16 16
9 9 9 8 8 8 8 8 8 8 7 7 7 7 6 6 6 6 6 6 6 5 5 4 4 4 4 4 4 4 4 4 4 4 3 3 3 4 5 6 6 7 7 8 8 9 9 10 11 12 13 13 13 13 14 14 14 14 14 14 14 14 14 14 14 14 13 14 14 15 15 14 15 15 15 15 14 14 15 15 15 14 15 15 16
9 9 8 8 8 8 8 8 8 7 7 7 7 6 6 6 6 5 5 5 5 4 4 4 4 4 3 3 3 3 3 3 3 4 3 3 4 5 5 6 6 7 7 8 8 9 9 10 10 11 12 13 13 13 13 13 13 13 13 14 14 14 14 14 14 13 13 13 14 14 15 14 14 15 14 14 14 13 14 14 14 14 14 15 15
9 8 8 8 8 8 8 7 7 7 7 7 6 6 6 6 5 5 5 5 4 4 4 4 3 3 3 3 3 3 3 3 3 4 4 4 5 5 5 5 5 6 7 7 7 7 8 8 9 10 11 12 12 13 13 13 13 13 13 13 14 13 13 13 13 13 13 13 14 14 14 14 14 14 14 14 13 13 13 13 13 13 13 13 14
8 8 8 8 8 7 7 7 7 6 6 6 6 6 6 5 5 5 5 5 4 4 4 4 3 3 3 3 3 3 3 3 3 4 4 3 3 4 4 5 5 5 6 6 7 6 6 7 8 8 9 9 10 10 11 12 13 13 13 13 13 13 13 13 13 13 14 13 14 14 14 14 14 14 14 14 13 13 13 12 12 12 12 12 13
8 8 8 8 7 7 7 7 7 6 6 6 6 6 5 5 5 5 5 5 4 4 4 3 3 3 3 3 3 3 3 3 3 3 4 3 3 3 3 4 4 4 5 6 6 5 5 6 6 7 7 8 9 9 9 10 11 12 13 13 13 13 13 13 13 14 14 14 13 13 13 13 13 14 13 13 12 13 13 12 12 12 12 12 12
8 8 8 8 7 7 7 7 7 6 6 6 6 6 5 5 5 5 5 4 4 4 4 3 3 3 3 3 3 2 2 3 3 3 3 3 3 2 3 3 3 3 4 4 5 5 4 5 5 6 7 8 9 9 9 9 9 10 11 13 13 13 13 13 13 13 13 13 13 13 13 13 13 13 13 12 13 13 12 12 12 12 12 12 12
8 8 8 7 7 7 7 7 7 6 6 6 6 5 5 5 5 5 4 4 4 4 4 3 3 3 3 3 3 2 2 2 3 4 3 3 3 3 2 3 3 3 3 3 3 4 4 4 5 5 7 8 9 9 9 10 10 10 10 11 12 13 13 13 13 13 13 13 13 13 13 13 13 13 12 13 13 13 12 12 12 12 11 11 11
8 8 8 7 7 7 7 7 7 6 6 6 6 5 5 5 5 5 4 4 4 4 3 3 3 3 3 3 2 2 2 2 3 4 4 4 3 3 2 3 3 3 3 3 3 3 3 3 4 5 6 7 7 8 9 9 10 10 10 11 12 12 13 13 13 13 13 13 13 13 13 13 13 13 13 13 13 12 12 12 12 11 11 11 11
8 8 8 7 7 7 7 7 7 6 6 6 6 5 5 5 5 5 4 4 4 4 3 3 3 3 3 2 2 2 2 2 3 3 4 4 4 3 2 2 2 2 2 2 2 3 3 3 3 4 4 5 5 6 8 9 10 10 10 11 12 12 12 13 13 13 13 13 13 13 13 13 13 13 13 13 13 13 12 12 12 11 11 11 11
8 8 8 7 7 7 7 7 7 6 6 6 6 5 5 5 5 4 4 4 4 3 3 3 3 3 2 2 2 2 2 2 3 3 4 4 4 3 3 2 2 2 2 2 2 2 2 2 2 3 3 4 4 5 6 7 9 10 10 11 12 13 13 13 13 13 13 13 13 13 13 13 13 13 13 14 13 13 12 12 12 12 11 12 12
8 8 7 7 7 7 7 6 6 6 6 6 6 5 5 5 5 4 4 4 4 3 3 3 2 2 2 2 2 2 2 2 3 3 3 4 4 4 3 2 1 1 2 2 2 2 2 2 2 2 2 3 3 3 4 5 7 9 10 10 11 12 13 13 13 13 13 13 13 13 14 14 14 14 14 14 14 13 12 12 12 12 12 12 13
8 8 7 7 7 7 6 6 6 6 6 6 5 5 5 5 4 4 4 4 3 3 3 2 2 2 2 2 2 2 2 2 2 3 3 4 4 4 3 2 1 1 1 1 1 1 1 1 2 1 1 1 1 2 3 4 5 7 7 8 10 11 12 12 13 13 13 13 13 13 14 14 14 14 14 14 14 14 14 13 13 13 12 12 12
8 8 7 7 7 7 6 6 6 6 6 5 5 5 5 5 5 4 4 4 3 3 3 2 2 2 2 2 2 2 2 2 2 3 3 3 4 3 3 2 1 1 1 1 1 1 1 1 1 1 1 1 1 2 2 3 4 5 5 6 8 10 11 12 12 12 13 13 13 13 13 13 14 14 14 14 14 14 13 13 13 12 12 11 11
8 8 7 7 7 7 7 6 6 6 6 5 5 5 5 5 4 4 4 4 3 3 3 2 2 2 2 2 2 2 2 2 2 3 3 3 3 3 2 2 1 1 1 1 1 1 1 1 1 1 0 0 1 2 2 2 3 4 3 4 6 8 10 11 11 12 12 12 13 13 13 13 13 13 13 14 13 13 13 12 12 12 12 11 11
8 8 8 7 7 7 7 6 6 6 6 5 5 5 5 5 4 4 4 4 3 3 3 2 2 2 2 2 2 2 2 2 3 3 3 3 3 2 2 1 0 0 0 0 1 1 1 1 1 0 0 0 1 2 2 2 2 2 2 3 4 5 8 10 10 11 12 12 12 13 13 13 13 13 13 13 13 13 13 12 12 12 12 11 11
8 8 8 7 7 7 7 7 6 6 6 6 5 5 5 5 4 4 4 4 3 3 3 3 2 2 2 2 2 2 2 2 3 3 3 3 2 2 2 1 0 0 -0 0 0 1 0 1 1 0 0 0 1 1 1 2 2 2 2 2 2 4 6 8 9 10 11 12 12 12 13 13 13 13 13 13 13 13 13 13 13 12 12 12 12
8 8 8 8 7 7 7 7 6 6 6 6 5 5 5 5 5 4 4 4 4 3 3 2 2 2 2 2 2 2 2 2 3 3 3 3 3 2 2 1 0 0 -0 -0 -0 -0 -0 0 0 0 1 1 1 1 1 2 1 1 1 1 2 3 6 8 9 10 10 11 12 12 12 12 13 13 12 12 12 12 13 13 13 12 12 12 11
8 8 8 8 7 7 7 7 7 6 6 6 6 5 5 5 5 4 4 4 4 3 3 2 2 2 2 2 2 2 2 2 3 3 3 3 3 3 2 2 1 0 -0 -0 -1 -1 -1 -1 -0 -0 0 1 1 1 1 2 2 1 1 2 2 4 6 8 9 10 10 10 11 11 11 11 11 11 11 12 12 12 12 12 12 13 13 12 11
9 8 8 8 8 7 7 7 7 6 6 6 6 5 5 5 5 5 4 4 4 3 3 2 2 2 2 2 2 2 2 2 2 3 3 3 3 3 2 2 2 1 0 -0 -1 -1 -1 -1 -1 -0 -0 0 1 1 1 1 2 1 1 3 4 5 6 8 9 9 9 9 9 9 9 10 10 10 10 10 12 12 12 12 12 13 13 13 13
9 8 8 8 8 8 7 7 7 6 6 6 6 6 5 5 5 5 4 4 4 3 3 2 2 2 2 2 2 2 3 3 2 3 3 3 3 3 3 2 2 2 1 0 -0 -1 -1 -1 -0 -0 -0 0 1 1 1 1 1 1 1 3 4 5 6 6 6 7 8 8 7 7 7 8 8 9 9 9 10 11 11 11 11 12 12 12 13
9 9 8 8 8 8 7 7 7 7 6 6 6 6 6 5 5 5 4 4 4 3 3 2 2 2 2 2 2 2 2 2 2 3 3 3 3 3 3 2 2 2 1 1 -0 -0 -1 -1 -0 0 0 0 0 1 1 1 1 1 1 2 3 4 5 5 4 5 5 6 5 5 5 6 6 7 8 8 8 9 10 10 10 11 11 11 12
9 9 9 8 8 8 8 7 7 7 6 6 6 6 6 5 5 5 4 4 4 3 3 2 2 2 2 2 2 2 2 2 2 2 3 3 3 3 3 2 2 2 2 1 0 -0 -0 -0 0 0 0 -0 0 0 1 1 1 2 2 1 2 2 3 3 4 4 3 3 4 4 4 4 5 5 6 7 7 8 9 10 10 11 11 11 11
9 9 9 9 8 8 8 8 7 7 7 6 6 6 6 6 5 5 4 4 4 3 3 2 2 2 2 2 2 2 2 2 2 2 2 3 3 3 3 2 2 2 2 1 1 0 -0 -0 0 0 -0 -0 -0 -0 -0 0 1 2 2 1 1 1 1 1 2 3 2 2 3 3 3 4 4 5 5 6 6 6 7 8 9 10 10 10 10
9 9 9 9 8 8 8 8 7 7 7 7 6 6 6 6 5 5 5 4 4 3 3 3 2 2 2 2 2 2 1 1 2 2 2 2 2 3 3 2 2 2 2 2 1 0 -0 -0 0 0 0 0 0 -0 -0 -0 0 1 1 1 1 1 1 1 1 2 2 2 3 3 4 4 4 5 5 5 5 5 5 6 7 7 8 9 9
9 9 9 9 9 8 8 8 8 7 7 7 7 6 6 6 6 5 5 4 4 4 3 3 2 2 2 2 2 2 1 1 1 2 2 2 2 3 3 2 2 2 2 2 1 1 0 0 0 0 0 0 -0 -0 -0 -0 -0 -1 -0 0 1 1 1 1 2 2 2 2 3 3 4 4 4 4 4 5 5 5 5 5 5 5 6 7 7
9 9 9 9 9 8 8 8 8 8 7 7 7 7 6 6 6 6 5 4 4 4 4 3 3 2 2 2 2 1 1 1 1 2 2 2 2 3 2 2 2 2 2 2 2 1 1 1 0 0 -0 -0 -0 -1 -1 -1 -0 -1 -1 -0 -0 0 1 1 1 1 1 1 2 2 3 3 3 3 4 4 4 4 4 5 5 4 5 5 4
9 9 9 9 9 8 8 8 8 8 7 7 7 7 7 6 6 6 5 5 4 4 4 3 3 3 3 2 2 2 1 1 2 2 2 3 3 3 2 2 2 2 2 2 2 1 1 0 0 -0 -0 -0 -1 -1 -1 -1 -1 -1 -1 -1 -1 -0 -0 0 0 0 0 1 1 1 2 3 3 3 3 3 3 3 4 4 4 4 3 3 3
9 9 9 9 9 8 8 8 8 8 7 7 7 7 7 7 6 6 6 5 5 5 4 4 3 3 3 3 3 2 2 2 2 2 2 2 2 2 2 2 2 2 2 2 2 1 1 0 0 -0 -0 -0 -1 -1 -1 -1 -1 -1 -1 -1 -1 -1 -1 -1 -0 0 0 0 0 1 1 1 2 3 3 3 3 3 3 3 3 3 3 3 2
9 9 9 9 8 8 8 8 8 8 7 7 7 7 7 7 6 6 6 6 5 5 5 4 4 4 3 3 3 3 3 3 2 2 2 2 2 2 2 2 2 2 2 2 1 1 1 0 0 0 -0 -0 -0 -0 -0 -1 -1 -1 -1 -1 -1 -1 -1 -1 -1 -0 0 0 0 0 0 1 1 2 3 3 3 3 3 3 3 3 2 2 2
9 9 9 9 8 8 8 8 8 8 8 7 7 7 7 7 6 6 6 6 6 5 5 4 4 4 4 4 3 3 3 3 3 2 2 2 2 2 2 2 2 2 2 2 1 1 1 1 0 0 0 0 0 0 0 -0 -0 -0 -1 -1 -1 -1 -1 -0 -0 -0 -0 -0 0 0 0 0 1 1 1 2 2 2 2 3 3 2 2 2 2
9 9 9 9 8 8 8 8 8 8 8 7 7 7 7 7 7 6 6 6 6 5 5 5 4 4 4 4 3 3 3 3 3 3 2 2 2 2 2 2 2 2 2 2 1 0 1 1 0 1 1 1 1 1 1 1 0 0 -0 -0 -0 -0 -0 -0 -0 -0 -0 -0 0 0 0 0 0 0 1 1 1 1 2 2 2 2 2 1 1
9 8 9 9 9 8 8 8 8 8 8 8 7 7 7 7 7 6 6 6 6 6 5 5 5 5 4 4 4 3 3 3 3 3 2 2 2 2 2 2 2 2 2 2 1 1 1 1 1 1 1 2 1 1 1 1 1 1 1 1 1 1 0 0 0 -0 -0 -0 -0 0 0 0 0 0 0 1 1 1 1 1 1 1 1 1 1
9 9 9 9 9 9 8 8 8 8 8 8 7 7 7 7 7 7 6 6 6 6 5 5 5 5 4 4 4 4 3 3 3 3 3 2 2 2 2 1 1 1 1 1 1 1 1 1 1 1 2 2 2 1 1 1 1 1 1 1 1 1 1 1 1 0 0 0 0 0 1 1 1 1 1 1 1 1 1 1 1 1 1 1 1
9 9 9 9 9 9 8 8 8 8 8 8 8 7 7 7 7 7 7 6 6 6 6 5 5 5 5 4 4 4 4 3 3 3 3 3 2 2 1 1 1 1 1 1 1 1 1 2 2 2 2 2 2 2 2 2 2 2 2 2 2 2 2 1 1 1 1 1 1 1 1 1 1 1 1 1 1 1 1 1 1 1 2 2 2
9 9 9 9 9 9 9 9 8 8 8 8 8 8 7 7 7 7 7 7 6 6 6 6 5 5 5 5 4 4 4 4 4 3 3 3 3 2 2 1 1 1 1 1 1 1 1 2 2 2 2 2 2 2 2 2 2 2 2 2 2 2 2 2 2 2 2 1 1 1 1 1 1 1 1 1 1 1 1 1 1 1 2 2 2
9 9 9 9 9 9 9 9 9 8 8 8 8 8 7 7 7 7 7 7 7 6 6 6 5 5 5 5 5 4 4 4 4 3 3 3 3 2 2 2 2 1 1 1 1 1 1 1 2 2 2 2 3 2 2 2 2 2 2 2 2 3 3 3 3 2 2 2 2 2 2 1 1 1 2 1 1 1 1 1 2 2 2 2 2
9 9 9 9 9 9 9 9 9 8 8 8 8 8 8 7 7 7 7 7 7 7 6 6 6 5 5 5 5 5 4 4 4 3 3 3 3 3 2 2 2 2 2 1 1 1 1 1 2 2 2 2 2 2 2 2 2 2 2 2 2 2 3 3 3 3 3 3 3 2 2 2 2 2 2 2 2 2 2 2 2 2 2 2 2
9 9 9 9 9 9 9 9 9 9 8 8 8 8 8 7 7 7 7 7 7 7 7 6 6 5 5 5 5 5 4 4 4 4 3 3 3 3 3 2 2 2 2 2 2 1 1 1 2 2 2 2 2 2 2 2 2 2 2 2 2 2 2 3 3 3 3 3 3 3 3 3 3 2 2 2 2 2 3 3 3 3 2 2 2
9 9 9 9 9 9 9 9 9 9 8 8 8 8 8 7 7 7 7 7 7 7 7 6 6 6 5 5 5 5 5 4 4 4 4 3 3 3 3 3 2 2 2 2 2 2 1 1 1 2 2 2 2 2 2 2 2 2 2 2 2 2 2 2 3 3 3 3 3 3 3 3 3 3 3 3 3 3 3 3 3 3 3 3 3
9 9 9 9 9 9 9 9 9 8 8 8 8 8 8 8 8 7 7 7 7 7 7 6 6 6 6 5 5 5 5 4 4 4 4 4 3 3 3 3 3 3 2 2 2 2 2 1 1 1 1 1 2 2 2 2 2 2 2 2 2 2 2 2 2 3 3 3 3 3 3 3 3 3 3 3 3 3 3 3 3 3 3 3 3
9 9 9 9 9 9 9 9 9 9 9 9 8 8 8 8 8 7 7 7 7 7 7 7 6 6 6 6 5 5 5 5 4 4 4 4 4 3 3 3 3 3 3 3 2 2 2 2 2 1 1 1 1 2 1 1 1 1 1 1 1 1 1 2 2 2 2 3 3 3 3 3 3 3 3 3 3 3 3 3 3 3 3 4 3
9 9 9 9 9 9 9 9 9 9 9 9 8 8 8 8 8 7 7 7 7 7 7 7 6 6 6 6 5 5 5 5 5 4 4 4 4 4 3 3 3 3 3 3 3 3 2 2 2 2 2 2 2 2 2 2 1 1 1 1 1 1 1 1 2 2 2 2 3 3 3 3 3 3 3 3 3 3 4 4 4 4 4 4 4
9 9 9 9 9 9 9 9 9 9 9 9 8 8 8 8 8 7 7 7 7 7 7 7 6 6 6 6 6 5 5 5 5 5 4 4 4 4 4 3 3 3 3 3 3 3 3 3 2 2 2 2 2 2 2 2 2 1 1 0 0 0 1 1 1 2 2 2 2 2 2 3 3 3 3 3 3 4 4 4 4 4 4 4 4
9 9 9 9 9 9 9 9 9 9 8 8 8 8 8 8 8 7 7 7 7 7 7 7 6 6 6 6 6 5 5 5 5 5 5 4 4 4 4 4 3 3 3 3 3 3 3 3 3 3 2 2 2 2 2 2 1 1 1 0 0 0 1 1 1 1 2 2 2 2 2 2 2 2 2 3 3 3 4 4 4 4 4 4 4
9 9 9 9 9 9 9 9 8 8 8 8 8 8 8 8 8 7 7 7 7 7 7 6 6 6 6 6 6 6 5 5 5 5 5 5 4 4 4 4 3 3 3 3 3 3 3 3 3 3 3 2 2 2 2 2 1 1 1 0 0 0 0 1 1 1 1 2 2 2 2 2 2 2 2 2 3 3 3 4 4 4 4 4 4
9 9 9 9 9 9 9 8 8 8 8 8 8 8 8 8 8 7 7 7 7 7 7 7 6 6 6 6 6 6 5 5 5 5 5 5 4 4 4 4 4 3 3 3 3 3 3 3 3 3 3 2 2 2 2 1 1 1 1 1 0 0 0 1 1 1 1 1 1 1 1 1 1 1 2 2 2 3 3 3 3 4 4 4 4
9 9 9 9 9 9 9 8 8 8 8 8 8 8 8 8 8 7 7 7 7 7 7 7 6 6 6 6 6 6 5 5 5 5 5 5 4 4 4 4 4 3 3 3 3 3 3 3 3 3 3 2 2 2 2 1 1 1 1 1 1 0 1 1 1 1 1 1 1 1 1 1 2 2 2 2 2 2 3 3 3 3 4 4 4
9 9 9 9 9 9 9 9 8 8 8 8 8 8 8 8 8 8 7 7 7 7 7 7 7 6 6 6 6 6 6 5 5 5 5 5 4 4 4 4 4 3 3 3 3 3 3 3 3 3 3 2 2 2 2 1 1 1 1 1 1 0 0 1 1 1 1 1 1 1 1 1 2 2 2 2 2 2 2 3 3 3 3 4 4
Height
848 848 847 847 846 844 844 844 844 844 843 842 841 839 838 836 835 835 833 831 830 828 826 824 823 822 820 818 816 813 811 808 806 804 801 799 797 794 791 789 787 785 782 781 779 777 774 771 768 766 765 763 761 760 759 758 759 759 759 758 758 758 759 760 761 761 762 763 764 764 765 767 768 769 771 774 775 777 779 782 785 787 789 791 793
849 849 848 847 846 846 846 846 846 846 845 844 843 841 840 839 837 836 834 832 831 829 827 825 824 823 821 819 817 814 812 809 807 804 801 799 796 794 791 789 786 784 781 779 777 775 773 770 766 764 763 761 759 758 757 756 756 756 755 755 756 756 757 758 759 759 760 761 762 762 762 764 765 766 768 770 772 774 776 779 781 783 786 788 790
851 850 849 849 848 848 849 849 848 847 847 846 845 844 842 841 839 837 836 834 832 830 828 827 826 824 822 820 818 815 813 810 808 806 803 800 797 794 792 790 787 784 782 779 777 774 771 768 765 763 761 759 757 756 755 754 754 753 752 752 752 753 754 755 756 757 757 758 759 759 759 760 761 763 764 766 768 770 772 774 777 779 782 784 786
852 852 851 851 851 851 851 851 850 849 849 848 847 846 845 843 842 840 838 836 834 832 830 829 828 826 824 822 820 817 814 812 809 807 804 802 799 796 793 790 788 785 782 779 777 774 771 768 765 762 759 757 755 754 753 752 751 751 750 749 749 749 750 751 752 753 754 756 756 756 756 757 758 760 762 764 766 768 770 772 774 776 778 780 783
854 854 854 853 853 853 853 853 852 851 851 850 849 848 847 846 844 842 841 839 836 834 832 831 830 828 826 824 822 819 816 814 811 808 805 803 800 797 793 790 788 785 782 779 777 774 771 768 764 761 759 756 754 752 751 750 749 748 748 747 747 747 748 748 749 750 752 753 753 753 754 755 756 757 759 761 763 766 768 770 772 772 775 778 781
856 856 856 856 856 856 855 855 855 854 853 852 851 850 849 848 846 845 843 841 839 836 835 834 832 831 829 826 824 821 818 815 812 809 806 803 800 797 794 791 788 786 783 780 777 775 771 768 764 761 758 756 753 751 750 748 747 746 745 745 745 745 746 746 747 748 749 750 750 750 751 751 753 754 755 757 760 762 766 769 770 770 772 776 779
858 858 858 858 858 857 857 857 857 856 856 854 853 852 851 850 848 847 845 843 841 839 837 836 835 833 830 828 825 822 819 816 813 810 807 803 800 797 794 791 789 786 783 780 777 774 771 767 764 761 759 756 754 751 749 747 745 744 743 742 742 742 743 743 744 745 745 746 747 747 747 748 749 751 752 755 757 759 762 764 767 769 771 774 776
860 860 860 859 859 859 859 859 859 858 857 856 855 854 853 851 850 848 846 844 842 841 839 838 836 834 831 829 826 823 820 817 814 811 808 804 801 798 795 792 789 786 783 780 776 773 770 767 765 762 759 756 754 751 749 747 744 742 741 740 740 740 740 740 741 741 742 743 743 743 744 745 746 748 750 752 754 755 756 758 761 763 766 769 772
861 861 861 861 861 861 861 861 860 860 859 858 856 855 854 853 851 850 847 846 844 843 842 840 837 835 832 829 827 824 821 819 816 814 810 806 802 799 796 793 790 787 783 779 776 773 770 767 765 762 758 755 753 750 748 746 744 742 740 738 738 737 737 737 738 738 738 739 740 740 741 741 742 745 747 747 747 749 753 756 759 760 763 766 770
863 863 863 863 863 863 863 862 862 861 860 859 857 856 855 854 853 851 849 847 846 845 843 840 838 835 832 830 828 825 823 821 819 816 812 808 804 801 797 794 791 788 784 780 777 773 770 767 764 761 757 753 751 748 746 744 742 741 739 737 736 735 734 734 734 734 734 735 735 736 737 737 738 740 742 741 743 747 751 754 757 759 763 766 769
865 865 865 865 865 865 864 863 863 862 860 860 859 858 857 855 853 852 850 849 848 846 843 840 838 836 833 831 829 826 825 822 820 817 813 810 806 802 799 796 792 789 786 782 778 774 771 768 765 761 757 753 750 747 744 742 740 738 736 734 733 733 732 731 730 730 731 731 731 731 732 732 733 735 737 738 741 744 746 749 753 758 761 762 765
867 867 867 867 866 866 865 864 864 862 861 861 860 859 858 856 855 853 852 850 848 846 844 841 839 837 835 833 830 828 826 824 821 818 814 811 807 803 800 797 794 790 787 784 780 776 772 769 766 763 759 756 752 747 743 740 738 736 734 731 730 729 729 728 727 727 728 728 728 728 728 729 729 731 733 735 737 739 742 747 750 753 755 756 758
869 869 869 869 868 867 867 865 865 864 863 863 862 860 859 857 856 855 853 852 849 846 844 842 840 838 835 833 831 829 827 825 821 818 815 812 808 805 801 798 795 792 789 785 782 778 774 770 766 763 760 756 752 748 743 739 735 733 730 728 727 725 725 724 724 725 725 725 725 725 725 725 726 727 728 730 732 735 739 742 745 748 750 750 752
870 870 870 870 869 869 868 867 866 866 865 864 863 862 860 859 858 857 855 853 850 847 845 843 841 839 836 834 832 830 828 825 823 819 816 813 809 805 802 799 796 793 790 787 784 780 776 772 768 765 760 757 753 749 744 739 735 731 728 726 724 722 722 721 720 721 721 722 722 722 722 723 722 723 725 727 728 730 732 734 737 740 742 743 746
871 871 871 870 870 869 869 868 868 868 867 866 864 863 862 861 859 858 856 854 851 849 846 844 842 839 837 835 833 831 829 826 824 821 817 814 810 806 803 800 797 794 791 788 785 782 778 774 771 767 762 758 755 751 747 741 736 732 728 725 722 720 719 718 717 717 717 718 719 718 719 720 721 721 723 724 726 726 727 727 730 734 738 742 747
871 871 871 871 871 870 870 870 869 869 868 866 865 864 863 862 861 859 857 855 853 850 847 845 843 840 838 836 834 832 830 827 825 822 818 815 811 807 804 801 798 794 791 789 786 783 779 776 773 769 764 760 756 752 748 743 738 733 728 724 721 718 716 715 715 715 714 714 715 715 716 717 718 719 720 722 724 725 726 728 730 734 739 743 747
871 872 871 872 872 871 871 871 870 870 869 867 867 865 864 863 862 860 858 856 853 851 848 846 844 841 839 837 835 833 830 828 826 823 820 816 812 808 805 802 799 796 793 790 787 783 780 777 774 770 765 761 756 752 748 743 738 734 729 724 720 716 714 713 713 712 711 711 711 711 713 714 715 717 718 719 721 723 724 727 729 732 736 740 743
872 872 872 872 872 872 872 871 871 870 869 869 868 866 865 864 863 861 859 856 854 852 849 847 845 843 841 838 836 834 831 829 827 824 821 818 814 810 807 803 800 797 793 790 787 784 780 778 775 771 767 762 757 753 749 744 739 734 729 725 720 716 713 711 710 709 709 708 708 708 709 710 712 713 715 717 718 719 720 722 725 727 731 735 737
872 872 873 873 873 873 872 872 871 871 870 869 868 868 866 865 864 862 859 857 855 853 851 848 846 844 842 840 838 835 832 830 827 825 822 819 816 812 809 805 801 798 794 791 787 784 780 777 774 771 767 763 758 753 749 745 740 735 731 727 721 715 712 710 708 707 707 706 706 706 706 707 709 710 712 713 715 716 717 718 721 723 727 729 732
872 873 873 873 874 874 873 873 872 871 871 870 869 868 867 866 864 862 860 858 856 854 852 850 847 845 843 841 839 836 833 831 828 826 823 820 817 814 810 807 803 799 796 792 788 784 780 777 773 770 767 763 758 754 750 746 741 737 732 728 722 716 711 708 707 706 706 705 704 704 704 705 706 707 708 710 712 714 715 716 717 719 722 725 728
873 873 873 874 874 874 874 873 873 872 872 871 870 869 867 866 864 862 860 858 857 855 853 851 849 847 844 842 840 837 835 832 829 827 824 822 819 816 812 809 806 802 798 794 791 786 782 778 774 771 767 763 759 755 750 746 742 737 733 729 723 716 710 706 704 704 704 703 702 702 702 703 703 704 705 707 709 710 712 713 715 716 718 721 725
873 874 874 874 874 874 874 874 873 873 873 871 870 869 868 866 864 862 861 859 857 856 854 852 850 847 845 843 840 838 836 833 830 828 825 823 820 817 814 811 808 804 800 796 792 788 784 780 776 772 768 764 760 756 751 747 742 738 733 728 722 716 709 705 703 704 704 703 702 702 702 702 702 703 704 704 705 707 708 710 712 714 716 718 721
873 874 874 874 874 874 875 874 874 874 873 872 870 869 867 866 865 863 862 860 858 857 855 853 850 848 846 843 841 839 837 834 832 829 826 824 821 819 816 813 809 806 802 798 794 790 787 783 779 774 770 765 761 757 753 748 743 739 733 727 721 715 710 707 706 705 704 704 704 704 703 703 703 703 703 703 704 704 706 707 709 711 713 717 719
873 873 874 874 874 874 875 875 874 874 873 872 871 869 868 867 865 864 863 861 859 858 856 854 851 849 847 844 842 840 838 836 833 831 828 825 822 820 817 814 811 807 804 800 797 793 789 785 781 776 771 766 762 758 754 750 745 740 734 728 722 717 713 712 711 709 706 705 706 707 707 706 704 704 703 703 704 704 704 705 707 709 711 714 717
872 873 873 874 874 874 874 874 874 873 873 872 871 869 868 867 866 865 864 862 860 859 857 855 853 850 848 846 843 841 839 837 834 832 829 826 823 821 818 815 812 809 806 802 799 795 791 787 782 778 773 768 764 759 755 751 747 742 737 731 726 721 718 717 716 714 711 709 709 711 711 710 708 706 705 704 705 705 704 704 706 708 710 712 715
872 873 873 874 874 874 874 874 873 873 872 871 870 869 868 868 866 865 864 863 862 860 858 856 853 851 849 847 845 843 840 838 835 832 829 826 824 822 819 817 814 811 807 804 800 796 792 788 784 779 775 771 767 762 758 754 749 744 740 735 731 727 725 723 721 719 718 716 714 714 715 715 713 710 708 707 707 707 707 706 706 707 709 711 714
873 873 873 873 874 874 874 873 873 873 872 871 870 870 869 868 867 866 865 864 863 861 859 857 855 852 850 848 846 844 842 839 836 833 830 827 825 823 821 818 815 812 809 805 802 798 794 790 786 782 778 773 769 765 761 757 752 748 744 740 737 734 731 729 726 724 724 723 720 719 718 718 717 715 711 710 710 710 711 710 708 709 710 710 713
872 873 873 873 874 874 874 873 873 872 872 871 870 870 869 868 867 867 866 865 863 862 860 858 856 855 853 851 848 846 843 841 838 835 832 829 827 824 822 820 817 813 811 808 804 800 797 792 788 783 779 774 770 767 764 760 757 753 749 745 742 739 736 733 730 729 729 728 726 723 721 721 722 720 716 715 715 715 715 714 713 712 712 712 714
872 873 873 873 874 873 873 873 872 872 871 871 870 870 869 869 868 867 866 865 864 863 861 860 858 857 855 853 851 848 845 843 841 838 836 833 830 827 824 822 819 816 814 811 807 802 798 794 790 786 782 778 775 772 768 765 761 758 754 750 747 744 741 739 737 736 735 733 731 729 727 726 727 725 721 720 720 720 719 718 718 717 716 715 717
872 872 873 873 873 873 873 873 872 872 871 871 870 870 869 869 868 867 866 865 865 864 862 861 859 858 856 855 853 851 848 846 843 841 838 835 832 830 827 824 822 819 816 813 809 804 800 797 794 791 788 784 781 778 774 771 767 764 760 757 753 750 748 746 744 743 741 739 737 735 733 732 731 730 727 726 726 726 725 724 723 723 722 722 723
872 872 872 873 873 872 873 872 872 872 871 871 871 870 870 869 868 867 867 866 865 864 863 862 860 859 858 856 854 853 851 848 845 842 840 837 834 831 828 826 823 821 818 815 811 807 804 801 798 796 793 790 787 784 781 777 774 770 767 763 760 757 754 752 750 748 746 745 743 741 739 738 737 736 735 734 733 732 731 730 729 729 729 729 729
871 871 872 872 872 872 872 872 872 872 871 871 871 870 870 869 869 868 867 866 865 864 864 862 861 860 859 857 855 853 851 848 846 843 841 838 836 833 830 828 825 823 820 817 813 810 807 805 802 800 797 795 792 789 786 783 780 776 773 770 766 764 761 759 756 754 751 750 748 746 745 744 743 742 741 741 740 739 738 736 736 736 737 736 735
870 871 871 871 872 872 872 872 872 872 871 871 871 870 870 870 869 868 867 866 866 865 864 863 862 860 859 858 856 854 852 850 847 844 842 839 837 835 832 830 827 825 822 818 815 813 810 808 806 803 801 799 796 794 791 788 785 782 779 776 773 770 768 765 762 759 757 755 754 752 751 750 749 748 747 747 746 746 744 743 743 743 744 744 743
870 870 871 871 871 872 872 872 872 872 871 871 871 870 870 870 869 868 867 867 866 865 864 863 862 861 860 858 857 855 853 851 848 846 843 841 838 836 834 832 830 827 824 821 819 816 814 811 809 806 804 802 800 797 795 792 789 786 783 781 778 776 773 770 767 764 763 761 759 758 757 756 755 753 753 752 752 751 751 750 750 750 750 750 750
869 870 870 870 871 871 871 871 872 871 871 871 871 870 870 869 869 868 868 867 866 865 864 863 862 861 860 859 857 856 854 852 850 847 845 842 840 838 835 833 831 828 826 824 822 819 817 815 812 810 807 805 803 801 799 796 793 790 788 785 783 780 777 775 772 771 769 767 765 764 763 761 760 759 758 758 757 757 757 756 756 755 755 755 755
869 869 870 870 870 870 871 871 871 871 871 871 870 870 869 869 869 868 868 867 866 865 864 863 862 861 860 859 858 856 854 852 851 849 846 844 841 839 836 834 832 830 828 827 825 822 820 818 815 813 811 808 806 804 802 800 798 795 793 790 787 785 782 780 778 776 774 772 771 769 768 767 766 765 764 763 763 763 762 762 761 761 760 760 761
868 869 869 869 869 869 870 870 870 870 870 870 870 869 869 869 869 868 868 867 866 865 865 863 862 861 860 859 858 856 855 853 852 850 848 845 843 841 839 837 835 833 831 829 827 825 823 821 818 816 813 811 809 807 805 803 801 799 797 794 792 789 787 785 783 781 779 777 776 775 774 773 772 771 769 769 769 768 768 767 766 766 765 765 766
868 868 868 869 869 868 868 869 869 869 869 869 869 869 869 869 868 868 868 867 866 865 864 863 862 861 860 859 858 856 855 854 852 850 848 846 844 842 840 839 837 835 833 832 830 828 826 824 821 819 816 814 812 810 808 807 805 803 800 798 796 793 791 789 787 785 784 782 781 780 779 778 777 776 774 773 773 773 772 772 771 771 771 771 771
867 867 868 868 868 868 867 867 868 868 869 869 869 868 868 868 868 867 867 866 866 865 864 863 862 861 860 859 858 857 855 854 852 850 849 847 845 844 842 840 838 837 835 833 832 830 828 826 824 821 819 817 815 813 811 809 808 806 804 802 799 797 795 793 791 789 788 786 785 784 783 782 781 780 778 777 777 777 776 776 776 776 776 776 776
866 866 867 867 867 867 867 867 867 867 868 868 868 868 868 867 867 867 866 866 865 864 864 863 862 861 860 859 858 857 856 854 853 851 850 848 847 845 844 842 840 838 836 835 833 832 830 828 826 824 821 820 818 816 814 812 811 809 807 805 803 801 799 797 795 793 792 790 790 788 787 786 785 783 782 781 781 780 780 780 780 780 780 780 781
865 865 866 866 866 866 866 866 866 866 867 867 867 867 867 867 867 866 866 865 865 864 863 862 862 861 860 859 858 857 856 854 853 852 850 849 848 846 845 843 841 840 838 836 835 833 832 830 828 826 824 822 821 819 817 816 814 812 810 808 806 804 803 801 799 797 796 794 793 792 791 790 788 787 786 786 785 784 784 784 783 783 783 784 784
864 864 865 865 865 865 865 865 865 865 866 866 866 866 866 866 866 866 865 864 864 863 862 862 861 861 860 859 857 857 856 854 853 852 851 850 848 847 845 844 843 841 839 838 836 835 833 832 830 828 826 824 823 821 820 818 816 814 813 811 809 807 806 804 803 801 799 798 796 795 794 793 792 791 790 790 789 788 787 787 787 787 787 787 788
863 863 864 864 864 864 864 864 864 864 864 864 865 865 865 865 865 865 864 864 863 862 862 861 861 860 859 858 857 856 855 854 853 852 851 850 848 847 846 845 843 842 841 839 837 836 835 833 832 830 828 827 825 823 822 820 818 817 815 813 812 810 808 806 805 804 802 801 800 799 797 796 795 795 794 793 792 792 791 791 791 791 791 791 791
861 862 862 862 863 863 863 863 863 863 863 863 863 864 864 864 864 864 864 863 862 862 861 860 860 859 859 858 857 856 855 854 853 852 851 850 849 847 846 845 844 842 841 840 839 837 836 834 833 831 830 828 827 825 824 822 820 819 817 815 814 812 810 809 807 806 805 804 803 801 801 800 799 798 797 796 795 795 794 794 794 793 793 793 794
860 861 861 861 861 861 861 862 862 862 862 862 863 863 863 863 863 863 863 862 861 861 860 860 859 858 858 857 856 855 855 854 853 852 851 850 849 847 846 845 844 843 841 840 839 838 836 835 834 832 831 829 828 826 825 823 822 820 818 817 815 814 812 811 810 809 808 807 805 804 803 802 801 800 800 799 798 798 797 797 796 796 796 796 796
859 859 859 860 860 860 860 860 861 861 861 861 861 861 862 861 861 861 861 861 860 860 859 859 858 858 857 856 856 855 854 853 852 851 850 849 848 847 846 845 844 843 842 840 839 838 837 835 834 833 832 830 829 828 826 825 823 821 819 818 817 816 814 813 812 811 810 809 808 807 806 805 804 803 802 801 801 800 799 799 799 798 798 798 798
857 858 858 858 858 859 859 859 859 860 860 860 860 860 860 860 860 860 860 859 859 859 858 858 857 857 856 855 855 854 853 852 852 851 850 849 848 847 846 845 844 843 842 841 839 838 837 836 834 833 832 831 830 829 827 826 824 822 820 819 818 817 816 815 814 813 812 811 810 809 808 807 806 805 804 803 803 802 801 801 800 800 800 800 799
856 856 857 857 857 857 858 858 858 858 859 858 859 859 859 858 858 858 858 858 858 857 857 856 856 855 855 854 854 853 852 852 851 850 849 848 847 846 846 845 844 843 842 841 840 838 837 836 835 834 832 831 830 829 828 827 825 823 821 820 819 818 817 816 815 815 814 813 812 811 810 809 808 807 806 805 804 803 803 802 802 802 802 801 801
854 855 855 855 855 856 856 856 856 857 857 857 857 857 857 857 857 856 856 856 856 856 855 855 854 854 854 853 853 852 851 851 850 849 848 847 847 846 845 844 843 842 842 841 840 839 837 836 835 834 833 832 831 830 829 828 826 824 822 821 820 819 818 817 816 816 815 814 813 812 811 810 809 808 807 806 805 805 804 804 803 803 803 803 803
852 853 853 853 854 854 854 854 855 855 855 855 855 855 855 855 855 855 855 855 854 854 854 853 853 853 852 852 851 851 850 850 849 848 848 847 846 845 844 844 843 842 841 840 839 839 838 837 836 834 833 832 831 830 829 828 827 825 824 822 821 820 819 818 817 817 816 815 814 813 813 811 810 809 808 807 807 806 806 805 805 804 804 804 804
850 850 851 851 851 852 852 852 852 852 853 853 853 853 853 853 853 853 853 853 852 852 852 851 851 851 850 850 850 849 849 848 848 847 847 846 845 845 844 843 842 842 841 840 839 838 837 837 836 835 834 833 832 831 830 829 827 826 825 823 822 821 820 819 818 817 816 816 815 814 813 812 811 810 809 809 808 807 807 806 806 806 805 805 805
Wind_Speed
18 17 17 18 20 21 20 20 21 21 21 23 25 26 26 26 25 24 24 24 22 20 20 20 23 26 29 31 32 32 32 31 31 31 29 26 25 25 25 25 25 26 26 25 25 25 25 25 26 26 25 26 26 25 25 25 24 25 27 27 26 26 25 20 11 8 12 18 20 21 23 24 26 30 33 33 33 34 35 35 34 33 33 33 32
18 17 17 19 20 20 19 19 20 20 21 21 22 24 25 26 26 25 26 26 24 22 21 20 21 24 28 31 32 33 33 34 33 33 32 30 28 27 27 28 28 27 27 28 27 28 27 25 25 25 25 24 24 23 23 23 23 25 27 27 25 25 26 23 16 10 11 16 19 19 21 24 26 29 33 34 35 37 37 37 36 36 36 35 34
17 17 17 18 18 18 17 18 18 19 20 20 20 20 22 24 25 26 27 26 25 23 22 21 22 25 28 31 32 33 34 35 34 34 33 31 30 29 28 28 29 29 29 30 29 30 30 27 25 25 25 23 22 22 23 23 22 23 25 27 27 26 26 26 21 15 13 16 19 20 21 23 26 29 32 35 36 36 38 39 38 38 38 37 35
18 17 18 18 17 17 17 17 17 18 19 19 18 17 19 22 25 26 27 27 27 26 24 23 24 26 28 30 32 33 34 35 35 35 33 31 31 31 28 27 28 29 29 30 30 30 29 27 26 26 26 24 22 22 22 23 23 22 22 22 24 24 24 26 26 22 16 15 19 22 23 24 26 28 30 32 33 34 37 37 37 38 39 39 37
20 20 20 20 20 20 20 20 21 21 20 19 17 16 17 19 21 23 25 26 27 27 26 24 25 26 27 28 30 32 33 34 35 36 35 32 30 29 28 27 28 29 29 30 30 28 27 26 25 27 27 25 23 22 22 22 23 22 22 21 21 22 21 23 25 24 19 17 19 21 22 24 25 27 30 31 29 30 32 33 35 37 36 36 36
21 21 21 21 20 20 21 21 22 22 22 21 20 18 17 18 19 21 23 24 25 26 25 24 24 25 26 27 29 32 33 34 36 37 36 33 30 29 28 27 28 28 28 28 27 25 25 26 25 25 26 25 23 22 22 23 23 22 22 22 22 22 21 21 22 22 22 23 22 21 21 23 24 25 29 32 30 30 29 27 29 32 31 32 34
19 18 18 19 18 17 17 18 19 20 21 22 22 20 20 20 20 21 23 25 25 25 25 24 24 24 25 27 29 32 34 35 36 37 37 35 32 30 30 28 28 28 27 27 27 27 27 27 27 27 28 27 25 23 21 20 21 22 23 24 23 22 22 22 23 23 24 24 22 22 23 23 24 25 28 31 30 31 31 26 23 25 28 32 34
16 16 17 18 18 17 16 16 17 18 19 20 21 22 21 21 21 22 23 25 25 25 24 24 24 25 26 27 29 31 35 36 37 37 37 35 33 31 30 29 29 29 29 30 30 29 28 27 27 29 30 28 25 23 24 22 19 19 22 23 24 22 22 22 23 23 24 23 21 22 22 22 23 24 24 25 23 25 32 31 27 28 30 32 34
19 19 19 20 20 18 17 16 17 18 20 20 20 21 22 22 21 22 23 24 24 25 24 24 25 26 27 28 28 31 34 36 37 36 35 34 33 31 30 30 29 29 30 32 33 31 30 29 28 29 31 28 25 23 23 23 22 20 19 20 21 22 22 22 21 22 22 21 19 20 19 19 21 20 19 24 26 26 29 29 26 28 30 29 30
22 21 20 20 20 20 19 17 16 17 18 19 19 19 20 20 20 21 22 22 23 24 24 25 26 26 27 28 28 30 33 35 36 35 34 33 32 31 30 29 29 30 29 30 33 33 32 31 30 31 33 30 28 27 26 24 23 20 19 18 19 20 22 22 21 21 20 18 18 19 16 16 20 22 22 28 31 26 26 29 25 22 24 22 21
24 23 22 20 20 21 21 19 17 16 17 17 18 18 18 18 19 21 21 22 21 22 24 25 26 26 26 27 27 28 31 33 34 36 36 34 32 30 29 28 29 30 30 29 32 33 32 32 32 34 36 34 32 31 30 28 26 23 21 19 19 19 21 22 22 22 20 18 19 20 18 18 22 26 26 29 29 27 30 33 27 23 24 20 15
23 23 22 21 20 21 21 20 20 18 17 17 17 18 19 19 21 22 22 22 22 23 24 24 25 25 25 26 26 27 30 32 33 35 36 36 34 31 29 28 27 28 30 31 33 33 32 31 32 34 36 35 34 34 34 32 30 28 25 21 20 19 20 22 24 23 21 20 19 19 20 23 23 25 27 29 30 30 31 31 29 28 29 26 21
21 21 22 22 22 22 22 22 22 21 20 19 18 18 20 21 23 24 24 25 25 25 25 25 25 25 25 25 26 26 29 31 31 34 36 36 36 34 32 29 26 26 29 30 31 33 32 30 31 34 37 37 36 37 38 37 34 32 29 24 21 19 19 20 24 26 26 24 21 21 25 27 25 26 30 32 32 31 29 29 31 31 30 31 31
20 20 21 21 22 23 23 23 24 23 23 22 21 20 21 21 22 24 25 26 27 27 27 27 26 25 25 25 26 27 29 30 30 32 35 37 37 35 34 32 28 26 28 29 30 32 30 29 30 32 35 36 36 38 39 39 38 36 33 29 24 21 20 19 20 24 29 29 26 26 29 31 29 30 32 33 34 34 33 34 36 35 35 36 35
18 19 19 20 21 22 22 22 22 23 23 23 23 22 20 19 20 21 23 26 27 27 28 27 27 26 25 26 27 28 29 29 30 31 33 36 37 36 34 33 31 29 29 29 30 31 29 27 28 30 32 34 35 36 37 38 38 37 35 32 28 25 22 20 19 19 25 31 31 30 31 30 31 33 31 31 35 37 38 39 39 37 33 29 26
17 17 18 19 19 19 20 20 20 20 21 21 22 21 20 20 20 20 22 25 26 28 28 28 27 27 26 26 27 29 29 30 30 31 33 35 37 36 35 34 33 32 30 29 30 31 29 27 27 29 31 34 35 34 35 35 35 35 34 32 30 27 24 21 20 19 20 25 30 33 32 29 29 31 30 30 33 35 31 28 28 27 23 19 19
17 16 17 17 17 17 18 18 18 18 18 19 20 20 21 21 21 21 23 25 27 28 28 28 27 26 27 27 27 28 30 30 30 30 32 34 36 36 35 34 33 32 30 29 30 31 29 27 27 28 31 34 35 34 33 33 33 33 32 31 29 28 26 22 19 20 19 20 25 30 32 30 27 27 29 29 31 32 26 21 24 27 23 16 15
16 15 15 16 16 16 16 17 17 17 18 18 19 20 21 21 21 22 23 25 27 27 28 29 28 27 27 27 28 28 29 30 30 30 30 32 34 35 34 33 33 32 30 30 31 32 31 29 27 28 32 35 34 33 33 33 32 30 29 28 28 27 26 23 20 20 19 19 21 25 29 30 28 26 26 27 30 33 31 28 29 31 26 19 17
15 14 14 14 14 15 16 16 17 17 17 18 18 19 20 20 21 22 24 26 27 27 28 29 30 29 28 28 28 29 30 30 30 29 29 30 32 34 33 33 33 32 30 29 31 33 33 33 31 30 33 34 33 32 32 32 30 29 26 25 26 28 29 25 21 20 21 20 19 21 24 27 28 27 26 27 28 32 35 35 34 34 30 26 24
15 14 13 13 13 14 15 15 16 17 17 17 17 18 19 20 21 23 25 27 28 28 28 29 29 29 28 28 28 29 30 31 31 29 27 28 30 33 33 33 33 32 29 28 30 33 34 35 35 33 34 34 32 32 32 31 29 28 26 26 26 30 32 28 20 17 20 20 18 18 19 21 24 26 26 26 27 30 34 36 36 37 36 31 27
15 13 12 12 12 12 13 14 15 15 15 16 17 17 18 20 21 23 25 27 28 29 29 28 29 30 29 29 29 29 30 31 31 28 26 27 29 31 32 33 32 32 30 28 29 31 33 35 36 35 34 33 31 32 33 31 30 29 29 28 26 26 27 24 19 15 16 17 15 14 14 15 17 18 18 21 25 29 34 35 34 37 39 35 29
15 13 12 12 11 11 11 12 13 13 13 15 16 17 17 19 21 23 25 27 28 28 29 29 29 30 31 30 30 30 31 33 32 28 25 26 28 29 30 31 31 31 30 30 30 31 32 34 36 35 34 33 31 31 33 33 32 32 30 28 26 22 17 13 10 10 11 10 9 9 9 9 10 10 11 15 20 28 34 37 35 35 37 37 35
13 13 12 11 10 10 9 9 10 11 12 13 15 16 17 18 20 22 24 26 27 27 28 29 29 30 32 32 31 30 31 33 32 29 25 24 26 28 29 30 31 31 30 30 30 31 32 33 34 35 35 34 32 31 33 34 35 35 32 30 29 26 21 17 11 2 2 4 4 3 4 3 5 7 7 9 13 21 29 33 34 34 33 34 36
12 12 12 11 10 9 8 7 7 8 9 11 13 15 16 17 18 20 22 24 26 26 26 27 28 29 30 32 32 31 31 32 32 30 26 24 25 27 29 30 31 31 31 30 30 30 31 33 33 34 35 35 34 33 33 35 36 37 36 35 34 32 29 27 24 17 14 15 16 15 13 9 4 3 4 5 7 12 19 24 26 27 26 27 30
13 12 12 11 10 8 7 6 5 5 7 9 11 14 15 15 16 17 19 22 24 24 24 25 26 28 29 30 32 32 30 30 31 30 28 26 25 26 28 30 31 32 33 32 31 30 31 32 33 35 35 36 36 36 35 35 36 37 38 38 37 36 34 31 31 28 23 21 21 20 18 16 11 7 5 6 8 9 13 18 20 20 21 24 25
14 13 12 11 10 8 7 6 5 4 6 7 9 11 13 14 15 15 17 19 21 22 23 24 25 27 28 30 31 32 31 30 30 29 29 28 27 26 27 29 31 33 33 33 33 32 32 33 34 36 36 36 37 37 36 37 38 38 39 40 38 37 34 31 31 30 27 24 24 23 20 18 14 11 9 9 10 11 12 18 21 21 20 22 21
12 12 12 11 10 9 7 7 6 5 6 6 7 9 11 12 13 14 14 16 19 20 21 22 24 25 27 29 31 32 31 30 29 28 28 28 26 26 27 28 30 34 35 34 34 33 33 34 35 36 37 38 39 39 39 39 39 39 40 40 39 37 35 33 31 31 28 25 25 26 24 22 19 16 15 15 14 12 11 13 19 21 21 23 22
10 11 11 11 11 10 8 7 7 6 6 6 7 8 9 11 12 12 12 13 16 18 18 19 20 21 22 25 29 30 30 30 29 27 26 26 26 26 26 26 29 33 34 34 34 33 33 35 37 38 39 40 41 41 41 40 39 39 39 39 39 38 37 36 34 34 31 28 27 28 28 27 26 24 23 22 20 16 13 13 14 16 18 22 21
10 10 10 10 10 9 9 8 7 6 6 6 7 7 9 10 11 10 10 10 13 15 16 17 18 18 19 21 24 26 27 27 26 25 24 23 24 24 23 23 26 29 30 31 32 33 34 35 36 36 37 37 37 38 38 39 38 39 39 39 39 38 38 37 35 34 33 31 30 30 30 29 28 29 29 29 27 23 19 17 18 18 20 23 22
11 11 10 9 9 8 8 7 6 6 6 6 7 7 8 9 10 9 9 9 10 12 14 15 16 17 18 19 21 22 22 22 22 23 23 23 23 23 21 20 22 24 26 28 30 32 33 33 33 33 33 33 33 34 35 36 36 36 37 38 38 38 37 35 34 33 33 32 31 31 31 30 29 30 31 31 31 29 27 25 25 25 25 26 24
11 12 11 9 8 7 7 6 5 5 5 6 7 6 6 8 9 9 8 8 9 10 12 12 13 14 15 18 20 21 21 22 22 22 23 24 25 23 21 19 20 21 24 26 28 29 30 30 31 32 32 31 31 32 33 34 34 34 35 36 37 37 36 34 33 33 33 33 32 31 30 30 29 29 29 29 30 30 31 31 31 30 28 27 25
11 12 11 9 8 8 6 5 4 4 4 5 6 6 5 6 7 8 8 8 8 9 10 11 12 13 14 15 17 20 22 23 23 23 23 23 24 23 20 20 21 22 24 26 27 28 28 28 28 30 31 31 31 32 32 33 33 33 33 33 34 35 35 33 33 34 33 32 32 31 29 28 27 27 27 27 28 29 30 31 31 30 29 29 28
12 13 12 10 9 8 7 5 4 4 3 3 4 4 4 4 5 7 8 8 8 9 10 10 11 13 14 14 15 17 20 22 24 24 23 23 23 22 20 20 22 23 25 27 27 27 28 28 27 28 28 29 30 31 32 32 33 33 33 32 32 33 34 34 36 36 35 33 32 31 29 27 26 25 24 24 25 26 26 27 27 27 27 26 26
12 13 11 9 9 9 8 6 4 3 2 2 2 3 3 3 4 5 7 8 8 8 9 9 10 12 13 14 14 16 18 20 23 24 24 23 22 21 19 20 21 23 25 27 27 27 28 28 28 27 27 27 28 30 31 32 32 32 33 33 33 33 34 35 36 36 35 34 33 32 30 29 27 25 24 23 23 23 24 24 25 25 24 23 23
13 12 9 7 7 8 8 7 5 3 2 2 2 2 3 3 3 3 5 7 7 7 8 9 10 11 12 13 14 15 16 18 21 23 23 23 22 21 20 22 23 24 25 26 26 26 27 28 28 27 26 25 26 27 28 30 31 31 31 32 33 34 34 34 34 33 33 33 33 32 32 31 28 26 24 23 22 22 22 22 22 22 21 21 21
13 12 9 6 5 6 8 8 6 5 3 2 2 1 2 2 2 3 4 5 6 6 7 8 8 9 10 12 13 14 15 17 19 21 22 23 22 22 22 23 24 24 25 25 26 26 27 28 28 28 25 23 23 25 26 28 29 28 28 29 30 32 33 32 32 32 31 31 31 31 32 32 30 27 25 24 23 22 21 21 20 20 20 19 19
13 11 8 6 5 6 8 9 9 7 5 3 3 2 0 1 2 3 4 5 5 5 6 7 8 8 10 12 13 13 15 16 17 18 20 22 22 22 22 21 21 22 23 24 24 25 27 27 28 27 25 22 20 22 24 26 27 27 28 28 28 28 29 30 31 31 30 30 29 29 29 29 29 28 26 24 22 21 21 20 20 19 18 18 17
11 9 6 5 4 4 7 10 10 9 7 5 4 3 2 2 3 3 4 4 5 6 5 6 7 8 9 11 13 13 14 15 16 17 19 21 22 22 22 21 20 20 21 22 23 24 25 26 26 26 25 22 20 20 22 24 24 25 27 29 29 28 27 27 28 29 28 28 28 27 26 26 26 26 26 23 21 19 19 19 18 18 17 17 16
10 7 5 4 4 4 6 8 10 11 9 6 5 5 3 3 3 4 4 4 5 6 6 6 6 7 8 9 11 12 13 14 16 17 18 19 19 20 21 21 21 21 21 21 22 22 23 24 24 23 23 21 21 20 21 21 22 23 25 28 29 29 27 25 24 25 25 25 25 25 25 24 24 24 25 23 20 17 15 15 15 14 14 14 15
10 8 5 4 5 6 7 7 9 11 10 8 6 6 4 3 3 4 5 5 5 6 6 6 5 6 7 8 10 11 12 13 14 15 15 16 17 17 18 19 20 21 21 21 21 22 22 21 22 23 22 20 20 21 21 20 21 23 25 26 27 28 28 26 23 22 22 21 21 21 22 22 23 23 23 22 20 17 14 13 13 13 11 11 13
11 8 6 5 6 8 8 8 9 10 10 9 8 6 6 4 3 3 5 6 6 6 7 7 6 5 6 7 8 9 10 11 12 13 13 14 15 15 15 16 17 19 20 21 22 22 20 18 19 22 22 20 19 20 20 20 20 22 24 25 26 26 26 25 23 22 21 20 19 18 18 19 21 22 22 21 20 18 15 13 13 12 11 11 12
12 9 7 7 7 8 9 9 9 9 10 11 9 7 6 6 4 3 4 6 7 7 7 8 6 5 5 6 7 8 9 9 10 11 11 12 12 13 13 13 14 15 17 19 20 21 19 17 16 18 20 20 19 19 19 19 20 21 22 23 24 24 24 23 21 20 20 20 19 18 17 16 17 19 19 20 20 19 17 14 12 11 11 11 10
12 10 8 8 8 8 8 8 8 8 8 9 9 8 8 7 6 4 4 5 5 6 8 8 7 6 5 6 7 7 8 8 9 10 10 10 11 11 11 11 12 13 14 15 17 18 18 16 14 15 16 17 17 17 18 18 19 19 20 21 21 21 21 20 20 19 18 19 19 18 17 16 15 16 16 17 17 17 16 15 13 11 10 9 9
13 11 10 10 9 8 8 7 6 7 7 7 8 9 9 8 7 6 5 4 4 5 6 7 7 6 5 6 6 7 7 7 8 9 9 9 10 10 10 10 11 12 13 13 14 14 15 14 13 13 14 15 16 17 18 19 20 20 20 21 20 19 18 18 18 17 17 17 17 17 17 17 16 15 15 14 14 14 14 13 13 12 10 8 7
15 13 11 11 11 10 8 7 7 8 9 8 9 9 8 8 8 7 6 4 4 4 5 4 4 5 5 5 6 7 7 7 7 8 8 8 9 9 9 9 10 11 12 12 12 12 12 12 12 12 13 14 15 16 18 19 20 21 21 20 18 17 16 16 16 15 15 15 16 16 16 16 16 15 15 14 13 12 11 10 10 10 10 8 6
15 13 11 12 12 10 8 8 9 10 10 9 9 9 8 8 9 9 8 6 5 4 4 3 3 3 4 6 7 7 6 6 7 7 7 7 8 8 9 9 9 9 10 11 12 12 11 11 11 11 12 13 14 15 16 18 20 22 21 18 15 14 13 14 14 13 13 13 15 16 16 17 16 16 15 13 12 11 10 9 8 8 9 8 6
15 14 12 12 13 11 9 10 11 12 11 11 10 10 9 9 10 10 10 8 6 5 5 4 3 3 4 5 6 7 6 6 6 6 7 7 7 7 8 8 8 9 10 10 11 12 12 11 11 11 12 13 13 14 15 17 20 21 20 16 13 12 12 11 11 11 12 13 14 15 16 17 16 15 15 13 11 10 9 8 8 7 7 7 6
15 15 14 14 13 12 11 12 13 13 13 12 12 12 11 11 11 11 11 9 8 7 7 7 6 5 5 5 5 6 7 6 6 5 6 7 7 7 7 7 8 9 9 10 11 12 12 12 12 11 11 12 12 12 14 16 18 19 18 15 13 11 11 10 10 10 10 11 13 14 15 15 15 14 13 12 10 9 8 8 7 6 7 7 6
17 17 16 16 15 13 12 13 15 15 15 14 14 14 13 13 13 13 12 11 10 9 8 9 8 7 6 6 5 6 7 7 6 6 6 6 7 7 7 7 8 8 9 10 11 12 12 12 12 12 11 11 11 11 12 13 15 17 17 15 13 11 10 9 9 9 9 10 11 13 14 14 13 13 12 10 9 9 8 8 7 5 5 6 6
19 19 18 18 17 16 15 14 15 16 17 17 17 16 15 15 15 14 13 13 12 11 10 10 10 9 8 7 6 6 7 7 7 7 6 7 7 7 7 7 7 8 8 10 11 11 11 12 12 12 12 11 10 10 10 12 13 15 16 15 13 12 10 10 9 9 10 10 10 12 14 15 13 12 11 10 9 9 9 9 8 7 6 6 6
21 21 20 19 19 18 18 17 16 17 19 20 20 19 18 17 16 16 15 15 14 13 12 12 12 11 10 9 8 7 7 7 8 7 7 7 7 7 7 7 7 8 9 10 10 10 10 11 11 12 13 12 11 9 9 10 12 13 14 15 14 12 11 10 10 10 11 10 10 11 14 15 14 13 11 10 10 10 9 8 8 7 7 6 5
Wind_Direction
92 86 79 73 68 67 65 63 60 57 54 51 48 47 45 44 43 39 38 37 35 33 31 30 25 22 22 21 18 16 13 11 8 5 0 355 351 347 343 341 339 337 335 331 328 326 320 313 310 306 301 292 281 273 268 264 253 240 237 232 223 220 220 219 224 233 224 224 224 220 221 221 217 217 216 215 218 216 211 214 220 221 222 220 217
91 87 81 75 70 67 65 62 59 56 54 50 47 45 42 41 38 36 36 35 34 35 33 30 25 21 21 20 18 17 14 11 8 5 3 358 353 350 348 346 343 341 340 338 335 334 329 319 312 311 308 298 286 277 272 269 259 244 237 233 228 223 220 218 220 226 226 224 223 220 219 217 214 214 213 213 216 215 213 215 221 223 224 221 217
90 86 81 77 73 70 67 64 61 57 55 53 49 46 43 40 37 37 37 36 35 37 37 34 28 23 21 20 19 18 15 12 9 6 4 1 355 352 350 349 347 344 342 340 339 337 333 326 319 316 310 300 293 287 278 271 265 253 241 233 227 224 222 221 220 219 222 227 225 220 216 213 213 215 215 216 217 214 212 214 218 219 220 219 217
87 85 82 80 77 74 71 68 65 61 58 57 55 53 47 43 41 40 40 39 38 39 39 35 30 24 22 21 19 18 16 13 9 7 6 4 359 355 353 350 349 347 343 342 342 339 334 328 324 324 316 302 294 291 283 273 268 264 258 245 232 226 224 224 224 220 217 225 228 224 218 213 215 218 216 215 215 214 213 212 213 214 215 216 216
89 87 85 82 80 78 76 74 70 66 63 61 61 62 57 49 44 41 40 40 40 40 39 35 30 26 23 21 19 18 16 13 10 8 8 7 4 0 357 355 352 350 347 347 347 344 340 337 333 333 327 312 297 289 283 276 271 267 264 260 251 241 232 227 227 222 215 220 228 229 224 218 218 219 215 210 209 212 214 211 210 211 210 210 212
91 88 85 82 80 79 79 77 73 70 68 65 64 65 64 59 51 45 42 42 41 41 40 36 31 27 24 22 20 18 17 15 12 10 8 8 8 6 4 360 356 352 348 348 349 346 346 348 347 346 343 334 320 306 292 281 274 267 261 258 254 248 240 236 234 225 216 220 227 229 225 218 215 214 213 209 203 203 208 208 208 207 202 202 206
93 87 82 79 78 80 81 79 76 73 70 68 66 65 64 61 56 50 45 43 42 40 38 36 32 28 25 23 21 19 18 16 14 13 11 8 8 8 7 4 359 355 352 349 350 351 351 352 354 355 354 350 344 337 327 310 288 274 265 258 251 244 239 236 233 225 219 220 223 226 225 219 212 211 213 209 201 199 201 196 195 199 198 198 200
93 87 83 81 79 81 86 87 82 77 74 71 68 65 62 57 53 49 44 42 40 37 35 33 30 27 25 23 21 19 19 17 14 13 11 10 9 8 8 6 1 357 356 354 354 353 352 352 353 355 355 353 348 345 346 343 326 300 279 264 252 243 238 232 226 222 224 225 222 223 224 219 213 212 209 199 192 197 201 195 190 193 196 197 198
95 91 87 83 81 83 89 93 89 80 74 71 70 67 62 57 53 47 43 41 38 35 34 31 28 26 24 23 20 18 18 17 15 14 12 11 10 8 8 7 3 358 356 356 357 355 352 351 351 352 354 352 347 343 340 342 342 329 307 285 264 249 241 235 226 220 222 224 222 220 220 218 213 203 192 191 195 198 198 197 197 195 193 194 197
93 89 85 83 83 85 88 93 93 84 74 69 66 63 60 57 52 45 40 37 34 31 30 29 27 25 23 21 20 18 17 15 15 16 15 13 12 9 8 7 6 4 360 355 356 356 353 353 352 353 355 352 347 344 339 335 336 333 321 305 286 264 248 239 230 223 221 219 220 217 213 217 212 199 191 198 203 197 190 194 198 189 183 186 192
93 87 83 84 86 86 86 88 88 82 74 66 60 57 56 56 50 43 37 34 30 27 26 26 25 23 22 21 19 17 15 13 13 16 17 16 14 11 8 5 5 6 3 359 358 356 353 353 352 354 357 355 349 344 340 335 332 329 320 307 294 278 258 243 232 226 222 220 222 217 211 217 215 204 199 200 198 193 191 195 191 172 172 183 189
97 91 85 84 86 87 85 83 79 73 68 65 62 60 60 57 50 44 40 35 32 29 27 25 24 22 22 21 19 17 15 12 11 14 15 17 16 14 9 5 2 3 3 2 1 358 355 352 350 352 355 355 352 347 342 337 332 329 325 311 296 285 271 253 241 231 223 220 223 219 215 222 220 207 201 197 194 193 193 193 189 180 182 190 191
102 98 92 88 88 88 87 82 76 71 68 67 67 67 64 59 52 47 43 39 36 33 30 27 25 24 23 22 20 18 15 13 11 12 13 15 17 16 12 7 3 0 360 360 359 358 356 352 348 349 352 355 355 352 346 340 334 330 327 319 305 293 283 268 253 242 233 227 225 223 220 223 223 214 207 202 195 190 187 189 192 190 190 195 197
108 104 99 94 92 91 88 85 80 75 73 71 70 68 65 60 54 47 43 39 35 32 29 26 25 25 24 24 22 20 17 14 12 11 12 13 16 16 14 11 8 3 360 358 356 355 356 353 348 346 349 352 354 352 347 343 338 334 330 326 317 304 293 283 268 252 241 233 229 230 229 227 226 225 219 209 200 194 191 192 194 195 197 201 201
114 110 104 98 95 93 90 88 83 79 76 73 71 69 65 59 52 45 40 37 34 31 28 25 24 25 25 24 23 22 20 17 14 12 11 12 15 16 13 11 11 7 3 360 356 354 354 351 348 345 346 348 351 351 348 343 340 337 334 329 324 315 302 292 285 271 251 237 232 235 238 236 234 233 228 217 210 208 205 202 199 196 197 197 192
120 115 109 101 96 95 92 90 86 81 77 73 70 67 63 58 52 46 42 38 34 32 29 27 25 25 25 24 23 22 22 20 17 14 11 11 14 15 12 10 10 7 4 0 356 355 354 350 347 346 346 348 349 351 351 345 340 339 336 330 326 320 310 300 295 289 271 251 241 240 243 243 241 239 234 225 219 215 209 202 193 186 181 175 174
124 120 114 105 99 98 96 93 89 84 79 74 70 66 62 58 54 49 44 39 35 32 30 29 28 26 26 25 22 21 22 21 19 16 13 12 14 14 12 9 7 4 2 360 356 355 354 351 348 347 348 349 350 352 353 349 344 342 337 331 328 323 318 315 306 293 283 267 252 244 242 243 242 239 234 230 224 216 204 188 182 179 175 172 177
127 126 121 111 103 100 98 96 92 87 82 76 72 67 62 58 54 50 46 41 37 35 33 32 31 29 27 26 22 21 21 21 20 18 15 14 15 15 12 8 5 1 359 357 356 356 355 353 353 351 349 350 352 354 356 354 350 346 339 332 328 322 319 321 316 298 283 272 260 250 243 240 239 237 233 231 227 218 206 197 192 184 178 182 188
131 132 130 121 109 101 99 97 93 88 83 78 73 67 62 58 54 50 47 43 39 37 36 35 33 30 28 26 24 22 21 21 21 19 17 16 17 16 13 8 4 1 358 354 353 355 356 355 356 356 352 352 356 358 359 359 356 350 343 335 326 319 317 318 313 297 281 270 262 255 248 244 243 241 237 233 228 221 214 209 200 189 184 190 188
133 134 136 132 118 105 99 96 92 88 84 79 74 68 61 56 52 49 46 43 40 38 37 35 32 30 27 25 24 22 19 19 21 21 19 18 18 16 14 9 4 1 358 353 351 352 354 355 357 357 355 356 359 2 3 4 2 357 351 343 331 322 317 310 300 286 275 266 258 252 248 246 246 244 240 236 230 224 218 213 205 196 193 193 188
136 135 138 138 129 112 101 95 90 87 84 79 74 67 60 54 50 48 45 41 39 37 36 34 31 29 27 26 25 23 20 18 19 20 21 21 20 17 15 11 6 2 359 356 354 353 353 354 356 357 358 358 1 5 7 8 9 6 0 354 345 331 318 304 290 276 263 252 243 241 240 238 238 238 235 230 228 225 219 213 208 205 201 196 191
141 139 139 140 133 120 106 97 90 87 83 77 71 66 59 52 48 46 43 40 38 36 35 32 30 27 27 27 26 25 23 20 18 19 20 21 21 18 15 13 10 7 4 1 359 357 355 355 357 359 0 2 5 9 11 12 15 12 9 9 7 356 342 326 299 265 247 234 216 207 212 218 219 216 214 215 219 222 218 212 210 212 209 204 202
149 146 143 141 135 126 116 104 93 85 79 73 68 63 57 50 46 43 41 38 37 35 34 32 29 26 25 26 26 25 22 20 19 18 17 18 20 20 17 15 14 13 9 5 2 360 359 359 0 2 5 7 9 11 14 16 18 17 17 22 24 21 21 23 20 12 143 88 76 98 109 157 194 190 192 198 204 213 215 212 210 213 213 210 210
155 154 150 148 143 134 126 114 98 85 77 69 63 59 54 48 45 42 39 37 35 34 33 31 29 26 22 21 23 22 20 19 18 17 15 13 17 19 17 17 17 16 13 9 6 4 3 4 6 9 11 11 12 14 17 19 21 22 23 27 32 33 34 32 29 34 54 59 47 35 35 45 71 122 159 167 168 192 204 205 206 210 212 209 210
135 148 159 162 156 143 129 119 105 90 78 65 59 57 51 46 43 40 38 36 34 32 32 30 28 26 22 19 18 17 16 16 17 18 16 12 14 17 17 18 19 18 14 12 11 11 10 11 13 15 15 15 15 17 18 19 22 26 28 29 32 34 34 34 34 32 34 44 47 39 32 35 45 61 104 131 129 143 168 177 184 193 198 198 201
119 133 150 162 165 154 130 118 112 95 77 64 59 56 48 43 41 38 35 35 32 30 29 29 27 24 20 17 15 13 12 13 14 17 16 13 13 17 18 19 22 22 19 17 17 17 16 17 18 18 17 17 19 19 18 19 23 28 30 30 31 32 31 33 37 36 30 33 43 45 40 40 48 62 82 96 97 100 123 148 158 163 171 175 172
121 125 130 141 152 148 129 118 114 97 79 67 62 58 49 42 38 34 32 32 30 28 27 26 25 22 18 15 12 10 9 11 13 16 17 14 14 16 17 18 23 24 23 21 20 20 19 20 21 22 21 21 22 22 21 21 23 25 27 30 31 32 33 35 39 40 35 33 41 48 50 50 52 59 68 71 68 67 85 119 134 141 150 154 142
132 128 124 128 134 135 129 121 110 97 86 75 68 62 53 44 37 31 30 29 27 26 24 23 23 20 16 13 11 8 8 10 12 15 17 16 15 14 14 17 24 26 24 22 22 22 22 23 23 22 22 22 21 20 20 19 20 22 25 28 31 33 36 39 40 39 37 37 42 49 54 53 48 51 60 62 57 56 65 83 97 111 128 131 121
147 139 130 127 128 128 125 118 104 94 90 82 75 69 59 49 39 30 26 28 28 26 23 22 22 20 19 17 12 7 7 10 13 15 17 17 16 14 14 18 24 26 24 22 23 23 23 23 22 20 20 19 18 17 16 16 18 20 22 26 30 32 34 35 35 34 35 38 40 43 49 52 48 50 56 58 55 56 65 74 78 81 92 98 94
155 150 139 132 133 129 121 115 104 93 89 83 76 73 66 54 44 34 26 27 29 27 25 23 20 17 18 20 19 14 10 11 14 15 17 18 18 18 18 21 24 24 22 21 23 24 23 21 20 18 17 17 16 15 14 14 15 17 20 24 28 30 32 32 32 33 37 40 41 42 45 49 49 51 54 56 56 58 61 68 74 75 75 77 73
159 157 149 145 146 137 122 116 110 100 93 86 77 69 64 57 48 38 31 28 30 30 27 23 20 17 14 15 19 21 19 17 16 15 15 17 18 19 20 21 21 23 23 21 20 20 20 19 18 18 18 17 16 15 15 16 16 16 18 22 25 28 30 31 32 35 38 39 42 44 46 46 49 52 54 56 58 61 62 64 67 69 68 68 66
162 161 158 160 161 150 135 126 120 110 101 95 82 64 56 57 51 41 34 30 30 32 30 25 23 21 16 13 15 19 22 21 17 15 14 15 17 20 22 22 22 24 26 25 20 17 15 14 14 15 17 18 18 18 18 18 18 18 19 19 22 26 28 30 35 40 41 39 40 43 44 46 49 52 56 58 59 61 64 64 65 66 64 63 64
164 162 163 168 168 160 152 145 134 115 102 100 88 63 51 56 51 40 34 30 26 28 30 28 24 22 19 17 16 18 21 22 20 17 15 15 17 20 23 26 28 29 30 27 22 18 16 14 11 12 15 18 21 21 21 20 20 21 22 21 22 24 28 33 38 41 41 42 43 43 44 47 50 53 56 60 60 60 62 65 68 70 67 63 63
168 165 165 169 171 170 167 164 153 132 114 114 101 64 45 48 43 31 27 26 23 23 25 24 22 20 18 17 16 17 20 23 23 20 17 18 20 20 22 26 30 32 32 28 24 20 18 17 14 13 15 20 22 23 23 22 22 23 24 24 25 26 29 34 38 38 39 41 43 44 45 46 48 50 53 58 62 62 62 64 68 70 69 66 65
170 165 164 170 177 181 182 179 171 160 152 153 136 76 40 37 32 17 14 17 17 16 19 18 14 13 14 14 14 15 16 20 23 22 20 21 22 21 23 27 29 29 29 28 25 23 20 18 17 17 19 23 25 26 26 26 26 27 27 27 27 28 29 32 34 36 37 39 40 42 44 45 47 49 52 57 63 64 64 65 68 69 71 70 70
171 165 165 171 180 190 194 194 188 180 180 193 191 140 34 18 5 353 356 2 3 4 11 13 7 3 5 9 11 12 13 16 20 21 21 22 23 24 26 29 29 28 27 26 25 25 23 20 19 19 22 27 29 29 30 30 30 31 32 30 30 30 30 30 31 33 38 40 41 42 43 44 46 50 54 56 60 62 66 70 71 72 74 75 75
169 169 173 182 193 201 201 201 200 193 189 204 219 216 247 326 325 324 329 341 351 355 359 5 4 359 357 2 7 9 10 13 17 20 22 23 24 25 27 27 25 26 26 25 24 24 24 23 21 20 22 25 27 27 28 29 31 33 33 32 32 33 33 31 32 35 40 42 42 43 44 44 45 49 53 56 58 58 61 66 68 69 73 76 77
165 169 176 186 202 209 203 202 203 200 197 207 226 230 234 271 301 308 308 320 339 347 347 350 356 354 351 355 359 1 5 10 15 19 21 22 22 23 23 22 21 20 21 21 21 22 24 25 22 20 21 23 24 23 23 26 30 33 33 31 32 33 34 34 34 36 40 43 44 44 46 47 47 47 49 52 55 55 56 58 61 63 66 69 72
175 179 187 195 196 196 195 199 203 204 203 208 220 222 226 256 283 291 293 302 319 333 335 334 342 350 350 351 353 354 358 6 11 14 16 19 20 21 20 20 19 17 15 15 16 19 23 24 22 20 22 25 26 26 27 28 31 31 30 30 31 31 32 35 36 35 36 39 42 44 45 46 47 47 47 47 49 51 52 51 52 56 61 68 73
187 191 204 211 196 186 188 200 209 211 210 213 219 219 222 245 276 284 286 289 298 314 320 319 329 346 348 347 350 350 350 358 7 10 11 13 17 19 18 18 18 17 16 15 15 16 19 22 23 23 26 28 28 28 29 30 30 30 30 30 31 30 31 33 36 37 36 36 39 44 45 45 46 46 47 46 45 46 48 48 49 54 64 76 83
193 197 211 212 193 185 190 204 217 220 220 221 224 224 225 233 260 288 288 283 287 300 309 310 317 337 342 341 346 348 344 348 359 6 9 11 12 14 16 16 17 17 16 14 14 15 18 22 24 26 29 32 31 30 29 29 29 30 30 30 28 28 29 29 31 35 37 37 40 45 47 49 49 49 49 48 46 45 48 49 53 62 73 86 93
200 205 214 208 191 185 193 205 218 226 228 228 229 233 235 233 237 274 296 291 286 289 298 306 310 318 331 335 339 342 341 342 349 359 6 9 11 12 13 13 14 16 16 13 12 12 16 20 22 23 27 31 33 32 32 30 27 26 25 24 23 24 25 25 26 30 35 39 42 47 51 54 56 56 54 50 47 47 48 51 56 66 78 89 98
207 211 215 207 198 196 198 202 207 213 221 226 226 230 236 233 228 246 286 300 293 285 291 301 303 302 315 327 329 332 336 338 342 350 358 4 8 11 12 11 11 13 14 13 11 11 13 16 16 16 20 26 27 26 24 22 19 18 18 17 18 19 22 22 21 24 31 36 39 44 49 53 56 57 56 52 48 47 48 50 55 62 73 85 98
215 217 216 211 208 208 209 208 201 192 194 202 208 217 229 232 229 239 262 277 280 280 286 295 295 291 300 315 317 320 326 331 335 343 349 354 0 6 10 11 10 10 10 11 11 9 10 12 11 10 13 18 19 17 14 11 9 9 10 12 13 17 21 21 19 20 26 30 31 35 40 44 46 49 50 50 50 51 51 53 54 58 65 78 92
215 217 220 217 213 211 214 216 204 188 187 192 198 208 221 226 223 228 234 236 248 269 277 285 292 288 288 297 302 308 317 322 328 336 340 341 348 357 3 6 8 7 5 5 5 4 4 6 6 4 6 9 10 10 7 3 1 360 2 5 10 16 21 20 18 19 23 25 24 26 29 31 33 36 38 41 46 51 54 57 57 58 64 73 86
211 215 221 218 213 211 211 206 196 191 192 195 196 199 205 209 213 217 218 222 238 257 258 265 282 277 271 282 290 295 304 313 321 331 336 333 335 345 353 357 0 3 2 2 1 359 357 357 357 357 357 357 359 1 2 359 355 354 356 1 8 17 22 21 20 22 24 23 21 22 21 20 20 21 23 28 35 41 47 54 58 60 65 71 78
218 216 216 213 211 211 210 202 198 198 198 197 198 200 203 206 210 213 214 219 231 238 237 243 256 256 260 280 288 286 288 298 311 325 334 333 331 336 344 348 351 353 357 360 1 359 357 355 354 352 352 353 354 356 358 356 353 354 358 4 10 19 24 22 20 22 24 21 17 14 11 9 8 8 9 14 21 27 35 45 52 58 61 63 63
223 215 211 210 212 214 210 203 202 205 206 205 206 210 210 212 214 215 216 221 227 230 231 234 238 241 255 278 286 282 279 283 293 309 323 331 333 336 338 341 343 344 349 355 358 357 357 357 356 356 357 357 357 358 358 356 356 359 6 11 13 17 21 20 17 18 18 15 12 9 6 3 2 2 4 8 12 18 27 36 45 53 54 50 49
225 216 213 215 219 221 217 212 210 212 214 215 215 216 217 219 221 221 221 224 228 233 236 235 233 236 248 266 280 281 275 273 280 294 306 318 329 335 335 336 338 338 341 347 351 353 354 355 358 2 5 4 2 3 3 1 3 8 13 15 14 14 13 12 11 11 9 6 7 9 9 8 7 8 10 11 12 17 27 38 48 55 49 37 36
229 221 219 223 226 226 226 225 223 221 221 221 222 224 227 227 227 226 226 226 230 236 239 238 237 239 244 255 270 277 271 268 273 285 294 301 313 323 327 330 332 332 333 337 342 345 349 353 359 6 9 9 6 7 8 7 9 14 16 16 15 14 10 6 5 6 4 2 3 7 10 12 13 13 13 15 17 19 28 39 46 48 40 24 17
231 228 227 230 231 230 231 234 233 229 225 225 227 231 234 234 232 232 231 230 234 240 243 241 240 243 245 251 260 266 265 264 267 275 284 291 298 305 313 321 327 327 328 332 335 336 340 348 356 4 10 11 8 6 7 7 9 12 14 14 13 13 9 6 5 4 2 2 3 5 7 10 12 13 16 22 25 24 26 32 34 31 26 21 14